Weather History for Kelso-Longview, WA

Change the Weather History Date:

Thursday, April 24, 2014

  Actual Average Record
Temperature  
Mean Temperature 54 °F -  
Max Temperature 60 °F 59 °F 75 °F (1999)
Min Temperature 48 °F 40 °F 32 °F (2002)
Degree Days  
Heating Degree Days 11    
Growing Degree Days 4 (Base 50)    
Moisture  
Dew Point 43 °F    
Average Humidity 69    
Maximum Humidity 88    
Minimum Humidity 44    
Precipitation  
Precipitation 0.43 in - - ()
Sea Level Pressure  
Sea Level Pressure 29.85 in    
Wind  
Wind Speed 10 mph (SSW)    
Max Wind Speed 18 mph    
Max Gust Speed 31 mph    
Visibility 10 miles    
Events      
Averages and records for this station are not official NWS values.
T = Trace of Precipitation, MM = Missing Value Source: NWS Daily Summary

Daily Weather History Graph

Daily Weather History Graph

Search for Another Location

Airport:

Trip Planner

Search our weather history database for the weather conditions in past years. The results will help you decide how hot, cold, wet, or windy it might be!

Date:

Astronomy

Apr. 24, 2014 Rise Set
Actual Time 6:09 AM PDT 8:10 PM PDT
Civil Twilight 5:37 AM PDT 8:43 PM PDT
Nautical Twilight 4:57 AM PDT 9:23 PM PDT
Astronomical Twilight 4:13 AM PDT 10:07 PM PDT
Moon 3:40 AM PDT 3:17 PM PDT
Length of Visible Light 15h 06m
Length of Day
14h 01m
Waning Crescent, 23% of the Moon is Illuminated
Apr 24
Waning Crescent
Apr 28
New
May 6
First Quarter
May 14
Full
May 21
Last Quarter

Hourly Weather History & Observations

Time (PDT) Temp. Dew Point Humidity Pressure Visibility Wind Dir Wind Speed Gust Speed Precip Events Conditions
12:15 AM 53.6 °F 48.2 °F 82% 29.72 in 10.0 mi SSE 18.4 mph 24.2 mph 0.02 in   Overcast
12:35 AM 53.6 °F 48.2 °F 82% 29.72 in 9.0 mi SSE 18.4 mph 31.1 mph 0.05 in   Overcast
12:55 AM 53.6 °F 48.2 °F 82% 29.71 in 10.0 mi SSE 16.1 mph 25.3 mph 0.08 in   Overcast
1:15 AM 53.6 °F 48.2 °F 82% 29.72 in 10.0 mi SSE 15.0 mph 27.6 mph 0.01 in   Overcast
1:35 AM 53.6 °F 48.2 °F 82% 29.72 in 9.0 mi SSE 13.8 mph 20.7 mph 0.06 in   Overcast
1:55 AM 53.6 °F 48.2 °F 82% 29.72 in 6.0 mi SSE 15.0 mph 24.2 mph 0.08 in   Overcast
2:15 AM 53.6 °F 48.2 °F 82% 29.72 in 10.0 mi SSE 15.0 mph 24.2 mph 0.01 in   Overcast
2:35 AM 53.6 °F 48.2 °F 82% 29.72 in 8.0 mi SSE 12.7 mph 24.2 mph 0.01 in   Overcast
2:55 AM 53.6 °F 48.2 °F 82% 29.71 in 10.0 mi SSE 17.3 mph 25.3 mph 0.02 in   Overcast
3:15 AM 53.6 °F 48.2 °F 82% 29.72 in 10.0 mi SSE 15.0 mph 23.0 mph N/A   Overcast
3:35 AM 53.6 °F 46.4 °F 77% 29.71 in 10.0 mi SSE 15.0 mph 23.0 mph N/A   Overcast
3:55 AM 53.6 °F 46.4 °F 77% 29.71 in 10.0 mi SSE 13.8 mph 20.7 mph N/A   Overcast
4:15 AM 51.8 °F 46.4 °F 82% 29.71 in 8.0 mi SSE 12.7 mph 18.4 mph 0.09 in   Overcast
4:35 AM 51.8 °F 48.2 °F 88% 29.70 in 10.0 mi SSE 13.8 mph 21.9 mph 0.12 in   Overcast
4:55 AM 51.8 °F 48.2 °F 88% 29.69 in 10.0 mi SSE 13.8 mph 25.3 mph 0.13 in   Overcast
5:15 AM 51.8 °F 48.2 °F 88% 29.73 in 10.0 mi South 11.5 mph 21.9 mph 0.02 in   Overcast
5:35 AM 51.8 °F 48.2 °F 88% 29.72 in 10.0 mi SSE 10.4 mph 18.4 mph 0.04 in   Overcast
5:55 AM 51.8 °F 46.4 °F 82% 29.73 in 10.0 mi SSE 6.9 mph - 0.05 in   Mostly Cloudy
6:15 AM 51.8 °F 48.2 °F 88% 29.74 in 10.0 mi South 6.9 mph - N/A   Mostly Cloudy
6:35 AM 51.8 °F 46.4 °F 82% 29.77 in 9.0 mi Calm Calm - 0.06 in   Overcast
6:55 AM 50.0 °F 46.4 °F 87% 29.77 in 10.0 mi NNE 3.5 mph - 0.06 in   Mostly Cloudy
7:15 AM 50.0 °F 46.4 °F 87% 29.78 in 10.0 mi Calm Calm - N/A   Partly Cloudy
7:35 AM 50.0 °F 46.4 °F 87% 29.79 in 10.0 mi East 3.5 mph - N/A   Scattered Clouds
7:55 AM 51.8 °F 46.4 °F 82% 29.80 in 10.0 mi Calm Calm - N/A   Mostly Cloudy
8:15 AM 51.8 °F 46.4 °F 82% 29.81 in 10.0 mi Calm Calm - N/A   Scattered Clouds
8:35 AM 53.6 °F 46.4 °F 77% 29.82 in 10.0 mi South 3.5 mph - N/A   Overcast
8:55 AM 53.6 °F 44.6 °F 72% 29.82 in 10.0 mi Calm Calm - N/A   Overcast
9:15 AM 53.6 °F 44.6 °F 72% 29.83 in 10.0 mi South 3.5 mph - N/A   Overcast
9:35 AM 51.8 °F 44.6 °F 76% 29.85 in 10.0 mi Calm Calm - N/A   Mostly Cloudy
9:55 AM 51.8 °F 42.8 °F 71% 29.86 in 10.0 mi WNW 4.6 mph - N/A   Overcast
10:15 AM 51.8 °F 42.8 °F 71% 29.86 in 10.0 mi South 3.5 mph - N/A   Mostly Cloudy
10:35 AM 53.6 °F 42.8 °F 67% 29.87 in 10.0 mi SW 5.8 mph - N/A   Overcast
10:55 AM 53.6 °F 42.8 °F 67% 29.88 in 10.0 mi South 6.9 mph - N/A   Overcast
11:15 AM 55.4 °F 42.8 °F 63% 29.88 in 10.0 mi South 5.8 mph - N/A   Mostly Cloudy
11:35 AM 55.4 °F 42.8 °F 63% 29.89 in 10.0 mi SSW 10.4 mph 19.6 mph N/A   Mostly Cloudy
11:55 AM 51.8 °F 41.0 °F 67% 29.91 in 10.0 mi SSW 10.4 mph - 0.01 in   Overcast
12:15 PM 53.6 °F 42.8 °F 67% 29.90 in 10.0 mi SW 8.1 mph - N/A   Mostly Cloudy
12:35 PM 55.4 °F 42.8 °F 63% 29.91 in 10.0 mi SW 8.1 mph 17.3 mph N/A   Mostly Cloudy
12:55 PM 57.2 °F 42.8 °F 59% 29.91 in 10.0 mi SW 8.1 mph - N/A   Overcast
1:15 PM 57.2 °F 39.2 °F 51% 29.91 in 10.0 mi SSW 8.1 mph 17.3 mph N/A   Overcast
1:35 PM 57.2 °F 42.8 °F 59% 29.91 in 10.0 mi SW 9.2 mph - N/A   Mostly Cloudy
1:55 PM 57.2 °F 42.8 °F 59% 29.91 in 10.0 mi WNW 3.5 mph - N/A   Scattered Clouds
2:15 PM 57.2 °F 42.8 °F 59% 29.92 in 10.0 mi WSW 8.1 mph - N/A   Mostly Cloudy
2:35 PM 59.0 °F 41.0 °F 51% 29.92 in 10.0 mi WSW 9.2 mph - N/A   Mostly Cloudy
2:55 PM 55.4 °F 42.8 °F 63% 29.92 in 10.0 mi West 9.2 mph - N/A   Mostly Cloudy
3:15 PM 59.0 °F 41.0 °F 51% 29.92 in 10.0 mi WSW 9.2 mph 19.6 mph N/A   Scattered Clouds
3:35 PM 60.8 °F 39.2 °F 45% 29.92 in 10.0 mi SW 10.4 mph 18.4 mph N/A   Mostly Cloudy
3:55 PM 59.0 °F 39.2 °F 48% 29.92 in 10.0 mi West 8.1 mph - N/A   Overcast
4:15 PM 59.0 °F 39.2 °F 48% 29.92 in 10.0 mi SW 8.1 mph 16.1 mph N/A   Overcast
4:35 PM 57.2 °F 37.4 °F 48% 29.92 in 10.0 mi SSW 6.9 mph - N/A   Scattered Clouds
4:55 PM 57.2 °F 35.6 °F 44% 29.93 in 10.0 mi West 9.2 mph - N/A   Mostly Cloudy
5:15 PM 55.4 °F 37.4 °F 51% 29.94 in 10.0 mi West 5.8 mph 17.3 mph N/A   Overcast
5:35 PM 55.4 °F 37.4 °F 51% 29.94 in 10.0 mi NW 6.9 mph - N/A   Overcast
5:55 PM 55.4 °F 39.2 °F 54% 29.94 in 10.0 mi WNW 9.2 mph - N/A   Overcast
6:15 PM 55.4 °F 39.2 °F 54% 29.94 in 10.0 mi West 3.5 mph - N/A   Scattered Clouds
6:35 PM 53.6 °F 37.4 °F 54% 29.94 in 10.0 mi West 8.1 mph 19.6 mph N/A   Mostly Cloudy
6:55 PM 53.6 °F 37.4 °F 54% 29.94 in 10.0 mi Calm Calm - N/A   Overcast
7:15 PM 51.8 °F 37.4 °F 58% 29.94 in 10.0 mi WSW 3.5 mph - N/A   Mostly Cloudy
7:35 PM 51.8 °F 37.4 °F 58% 29.93 in 10.0 mi Calm Calm - N/A   Scattered Clouds
7:55 PM 51.8 °F 37.4 °F 58% 29.93 in 10.0 mi Calm Calm - N/A   Clear
8:15 PM 51.8 °F 37.4 °F 58% 29.93 in 10.0 mi Calm Calm - N/A   Partly Cloudy
8:35 PM 51.8 °F 39.2 °F 62% 29.94 in 10.0 mi Calm Calm - N/A   Mostly Cloudy
8:55 PM 51.8 °F 39.2 °F 62% 29.94 in 10.0 mi Calm Calm - N/A   Overcast
9:15 PM 51.8 °F 37.4 °F 58% 29.94 in 10.0 mi Calm Calm - N/A   Mostly Cloudy
9:35 PM 50.0 °F 37.4 °F 62% 29.95 in 10.0 mi Calm Calm - N/A   Overcast
9:55 PM 50.0 °F 39.2 °F 66% 29.95 in 10.0 mi Calm Calm - N/A   Overcast
10:15 PM 48.2 °F 39.2 °F 71% 29.95 in 10.0 mi Calm Calm - N/A   Overcast
10:35 PM 50.0 °F 39.2 °F 66% 29.95 in 10.0 mi Calm Calm - N/A   Overcast
10:55 PM 48.2 °F 39.2 °F 71% 29.95 in 10.0 mi SSE 3.5 mph - N/A   Overcast
11:15 PM 48.2 °F 39.2 °F 71% 29.95 in 10.0 mi Calm Calm - N/A   Overcast
11:35 PM 48.2 °F 39.2 °F 71% 29.94 in 10.0 mi Calm Calm - N/A   Overcast
11:55 PM 48.2 °F 41.0 °F 76% 29.94 in 10.0 mi Calm Calm - N/A   Overcast